sat.trackr.live / text

‹ back to catalog

STARLINK-30936

NORAD 58534 · 2023-192D

PAYLOAD ACTIVE UNKNOWN

§ Identity

Operator
Country
US
Launch date
2023-12-08
Launch site
AFWTR
Launch vehicle
Mass (kg)
RCS (m²)

Purposes: comms

External: N2YO · Heavens-Above · Gunter

§ Orbital elements

Epoch: 2026-05-25T03:25:28.020288Z

Period
94.01 min
Inclination
53.1606°
Eccentricity
0.0001349
Mean motion
15.31674278 rev/d
Perigee alt
469.9 km
Apogee alt
471.7 km
Semi-major
6,849.0 km
B*
2.2393e-4
RAAN
57.4994°
Arg perigee
105.2319°
Mean anomaly
254.8831°
Rev number
13,783

§ Raw data

STARLINK-309361 58534U 23192D   26145.14268542  .00006584  00000+0  22393-3 0  99962 58534  53.1606  57.4994 0001349 105.2319 254.8831 15.31674278137831

JSON: /api/v1/satellites/58534 · /tle

For live sub-satellite position, see the globe view (requires WebGL).

§ Visibility from observer

Set your observer location to see the next 7 days of passes ≥ 10°. The values pass through the URL so the page stays shareable.

No JS? Fill the form by hand. The geolocation button needs JavaScript.